CAPE
0 0 0 0 0 0 0 0 0 0 0 0 0 0 0 0 0 0 0 0 0 0 0 0 2 19 26 6 8 7 35 31 29 24 21 270 605 935 728 902 549 489 547 110 368 943 1397 1187 876
0 0 0 0 0 0 0 0 0 0 0 0 0 0 0 0 0 0 0 0 0 0 0 0 0 1 2 13 0 2 10 30 24 24 20 66 364 677 380 679 699 696 418 210 633 1148 1402 1077 840
0 0 0 0 0 0 0 0 0 0 0 0 0 0 0 0 0 0 0 0 0 0 0 0 0 0 0 1 3 0 0 6 22 18 19 16 127 387 307 177 299 529 341 464 693 911 1172 770 678
0 0 0 0 0 0 0 0 0 0 0 0 0 0 0 0 0 0 0 0 0 0 0 0 0 0 0 0 0 0 0 0 15 15 15 14 17 63 210 55 62 119 194 191 365 275 491 525 512
0 0 0 0 0 0 0 0 0 0 0 0 0 0 0 0 0 0 0 0 0 0 0 0 0 0 0 0 0 0 0 0 0 10 11 12 16 19 17 147 182 109 10 46 152 71 234 300 362
0 0 0 0 0 0 0 0 0 0 0 0 0 0 0 0 0 0 0 0 0 0 0 0 0 0 0 0 0 0 0 0 0 0 5 9 12 18 14 15 99 128 6 79 55 53 101 213 303
0 0 0 0 0 0 0 0 0 0 0 0 0 0 0 0 0 0 0 0 0 0 0 0 0 0 0 0 0 0 0 0 0 0 0 1 4 11 16 15 14 14 120 115 8 139 92 108 255
0 0 0 0 0 0 0 0 0 0 0 0 0 0 0 0 0 0 0 0 0 0 0 0 0 0 0 0 0 0 0 0 0 0 0 0 0 2 6 9 13 13 11 128 32 155 52 100 177
0 0 0 0 0 0 0 0 0 0 0 0 0 0 0 0 0 0 0 0 0 0 0 0 0 0 0 0 0 0 0 0 0 0 0 0 0 0 0 4 15 15 11 5 181 159 91 51 105
0 0 0 0 0 0 0 0 0 0 0 0 0 0 0 0 0 0 0 0 0 0 0 0 0 0 0 0 0 0 0 0 0 0 0 0 0 0 0 0 5 9 11 4 113 111 103 57 38
0 0 0 0 0 0 0 0 0 0 0 0 0 0 0 0 0 0 0 0 0 0 0 0 0 0 0 0 0 0 0 0 0 0 0 0 0 0 0 0 1 5 8 6 6 105 98 79 41
0 0 0 0 0 0 0 0 0 0 0 0 0 0 0 0 0 0 0 0 0 0 0 0 0 0 0 0 0 0 0 0 0 0 0 0 0 0 0 2 1 6 5 6 6 3 72 81 87
0 0 0 0 0 0 0 0 0 0 0 0 0 0 0 0 0 0 0 0 0 0 0 0 0 0 0 0 0 0 0 0 0 0 0 0 0 0 0 1 1 6 5 6 5 3 3 8 113
0 0 0 0 0 0 0 0 0 0 0 0 0 0 0 0 0 0 0 0 0 0 0 0 0 0 0 0 0 0 0 0 0 0 2 0 0 0 0 0 3 4 4 5 10 6 4 2 10
0 0 0 0 0 0 0 0 0 0 0 0 0 0 0 0 0 0 0 0 0 0 0 0 0 0 0 0 0 0 0 0 0 0 17 0 0 0 0 0 3 4 4 5 8 9 4 5 11
0 0 0 0 0 0 0 0 0 0 0 0 0 0 0 0 0 0 0 0 0 0 0 0 0 0 0 0 0 0 0 0 0 0 0 15 0 0 0 0 0 1 5 5 5 8 4 3 20
0 0 0 0 0 0 0 0 0 0 0 0 0 0 0 0 0 0 0 0 0 0 0 0 0 0 0 0 0 0 0 0 0 0 0 53 0 0 0 0 0 1 4 4 5 4 6 3 2
0 0 0 0 0 0 0 0 0 0 0 0 0 0 0 0 0 0 0 0 0 0 0 0 0 0 0 0 0 0 0 0 0 0 0 32 0 0 0 0 0 0 5 4 3 4 4 4 3
0 0 0 0 0 0 0 0 0 0 0 0 0 0 0 0 0 0 0 0 0 0 0 0 0 0 0 0 0 0 0 0 0 0 0 0 8 0 0 0 0 0 7 6 7 5 4 1 1
0 0 0 0 0 0 0 0 0 0 0 0 0 0 0 0 0 0 0 0 0 0 0 0 0 0 0 0 0 0 0 0 0 0 0 25 9 0 1 0 0 0 1 5 6 4 7 5 2
0 0 0 0 0 0 0 0 0 0 0 0 0 0 0 0 0 0 0 0 0 0 0 0 0 0 0 0 0 0 0 0 0 0 1 36 4 8 0 0 0 0 0 6 5 4 5 5 0
0 0 0 0 0 0 0 0 0 0 0 0 0 0 0 0 0 0 0 0 0 0 0 0 0 0 0 0 0 0 0 0 18 0 0 19 3 5 12 0 0 0 0 1 6 7 5 6 3
0 0 0 0 0 0 0 0 0 0 0 0 0 0 0 0 0 0 0 0 0 0 0 0 0 0 0 0 0 0 1 0 0 8 17 0 0 1 2 0 0 5 0 0 3 3 4 5 6
0 0 0 0 0 0 0 0 0 0 0 0 0 0 0 0 0 0 0 0 0 0 0 0 0 0 0 0 0 0 0 0 0 3 18 0 0 0 0 0 1 1 0 0 0 2 4 3 4
0 0 0 0 0 0 0 0 0 0 0 0 0 0 0 0 0 0 0 0 0 0 0 0 0 0 0 0 0 0 0 0 1 1 17 9 11 0 5 4 10 11 7 0 0 3 3 2 4
0 0 0 0 0 0 0 0 0 0 0 0 0 0 0 0 0 0 0 0 0 0 0 0 0 0 0 0 0 0 0 0 1 0 16 24 31 20 19 5 12 11 9 3 0 2 2 3 3
0 0 0 0 0 0 0 0 0 0 0 0 0 0 0 0 0 0 0 0 0 0 0 0 0 0 0 0 0 0 0 1 4 3 13 5 10 33 13 10 14 6 1 1 0 2 3 2 4
0 0 0 0 0 0 0 0 0 0 0 0 0 0 0 0 0 0 0 0 0 0 0 0 0 0 0 0 0 0 0 0 0 9 4 3 0 1 0 12 13 2 1 0 0 2 2 3 3
0 0 0 0 0 0 0 0 0 0 0 0 0 0 0 0 0 0 0 0 0 0 0 0 0 0 0 0 0 0 0 0 4 7 0 0 0 0 1 10 13 1 0 0 1 1 2 2 2
0 0 0 0 0 0 0 0 0 0 0 0 0 0 0 0 0 0 0 0 0 0 0 0 0 0 0 0 0 0 0 16 0 0 0 0 0 0 0 8 13 0 0 0 0 1 4 2 2
CIN
-0 -0 -0 -0 -0 -0 -0 -0 -0 -0 -0 -0 -0 -0 -0 -0 -0 -0 -0 -0 -0 -0 -0 -0 -0 -0 -0 -0 -0 -0 -0 -0 -0 -0 -0 -7 -0 -2 -11 -8 -9 -13 -12 -64 -18 -7 -0 -0 -1
-0 -0 -0 -0 -0 -0 -0 -0 -0 -0 -0 -0 -0 -0 -0 -0 -0 -0 -0 -0 -0 -0 -0 -0 -0 -0 -0 -0 -0 -0 -0 -0 -0 -0 -0 -26 -19 -3 -22 -15 -7 -3 -7 -25 -0 -1 -0 -1 -6
-0 -0 -0 -0 -0 -0 -0 -0 -0 -0 -0 -0 -0 -0 -0 -0 -0 -0 -0 -0 -0 -0 -0 -0 -0 -0 -0 -0 -0 -0 -0 -0 -0 -0 -0 -5 -22 -23 -23 -36 -49 -3 -2 -0 -0 -1 -3 -14 -12
-0 -0 -0 -0 -0 -0 -0 -0 -0 -0 -0 -0 -0 -0 -0 -0 -0 -0 -0 -0 -0 -0 -0 -0 -0 -0 -0 -0 -0 -0 -0 -0 -0 -0 -0 -0 -0 -39 -0 -28 -49 -23 -12 -1 -4 -19 -8 -18 -19
-0 -0 -0 -0 -0 -0 -0 -0 -0 -0 -0 -0 -0 -0 -0 -0 -0 -0 -0 -0 -0 -0 -0 -0 -0 -0 -0 -0 -0 -0 -0 -0 -0 -0 -0 -0 -0 -0 -0 -0 -1 -14 -32 -14 -4 -25 -7 -20 -28
-0 -0 -0 -0 -0 -0 -0 -0 -0 -0 -0 -0 -0 -0 -0 -0 -0 -0 -0 -0 -0 -0 -0 -0 -0 -0 -0 -0 -0 -0 -0 -0 -0 -0 -0 -0 -0 -0 -0 -0 -1 -0 -43 -5 -15 -29 -27 -14 -28
-0 -0 -0 -0 -0 -0 -0 -0 -0 -0 -0 -0 -0 -0 -0 -0 -0 -0 -0 -0 -0 -0 -0 -0 -0 -0 -0 -0 -0 -0 -0 -0 -0 -0 -0 -0 -0 -0 -0 -0 -0 -0 -0 -3 -29 -0 -24 -33 -14
-0 -0 -0 -0 -0 -0 -0 -0 -0 -0 -0 -0 -0 -0 -0 -0 -0 -0 -0 -0 -0 -0 -0 -0 -0 -0 -0 -0 -0 -0 -0 -0 -0 -0 -0 -0 -0 -0 -0 -0 -0 -0 -0 -0 -15 -0 -27 -10 -46
-0 -0 -0 -0 -0 -0 -0 -0 -0 -0 -0 -0 -0 -0 -0 -0 -0 -0 -0 -0 -0 -0 -0 -0 -0 -0 -0 -0 -0 -0 -0 -0 -0 -0 -0 -0 -0 -0 -0 -0 -0 -0 -0 -0 -0 -0 -3 -23 -36
-0 -0 -0 -0 -0 -0 -0 -0 -0 -0 -0 -0 -0 -0 -0 -0 -0 -0 -0 -0 -0 -0 -0 -0 -0 -0 -0 -0 -0 -0 -0 -0 -0 -0 -0 -0 -0 -0 -0 -0 -0 -0 -0 -0 -0 -0 -7 -27 -55
-0 -0 -0 -0 -0 -0 -0 -0 -0 -0 -0 -0 -0 -0 -0 -0 -0 -0 -0 -0 -0 -0 -0 -0 -0 -0 -0 -0 -0 -0 -0 -0 -0 -0 -0 -0 -0 -0 -0 -0 -0 -0 -0 -0 -0 -0 -4 -9 -65
-0 -0 -0 -0 -0 -0 -0 -0 -0 -0 -0 -0 -0 -0 -0 -0 -0 -0 -0 -0 -0 -0 -0 -0 -0 -0 -0 -0 -0 -0 -0 -0 -0 -0 -0 -0 -0 -0 -0 -0 -0 -0 -0 -0 -0 -0 -13 -20 -40
-0 -0 -0 -0 -0 -0 -0 -0 -0 -0 -0 -0 -0 -0 -0 -0 -0 -0 -0 -0 -0 -0 -0 -0 -0 -0 -0 -0 -0 -0 -0 -0 -0 -0 -0 -0 -0 -0 -0 -0 -0 -0 -0 -0 -0 -0 -0 -38 -36
-0 -0 -0 -0 -0 -0 -0 -0 -0 -0 -0 -0 -0 -0 -0 -0 -0 -0 -0 -0 -0 -0 -0 -0 -0 -0 -0 -0 -0 -0 -0 -0 -0 -0 -47 -0 -0 -0 -0 -0 -0 -0 -0 -0 -0 -0 -0 -0 -38
-0 -0 -0 -0 -0 -0 -0 -0 -0 -0 -0 -0 -0 -0 -0 -0 -0 -0 -0 -0 -0 -0 -0 -0 -0 -0 -0 -0 -0 -0 -0 -0 -0 -0 -64 -0 -0 -0 -0 -0 -0 -0 -0 -0 -0 -0 -0 -19 -38
-0 -0 -0 -0 -0 -0 -0 -0 -0 -0 -0 -0 -0 -0 -0 -0 -0 -0 -0 -0 -0 -0 -0 -0 -0 -0 -0 -0 -0 -0 -0 -0 -0 -0 -0 -87 -0 -0 -0 -0 -0 -0 -0 -0 -0 -0 -0 -0 -17
-0 -0 -0 -0 -0 -0 -0 -0 -0 -0 -0 -0 -0 -0 -0 -0 -0 -0 -0 -0 -0 -0 -0 -0 -0 -0 -0 -0 -0 -0 -0 -0 -0 -0 -0 -54 -0 -0 -0 -0 -0 -0 -0 -0 -0 -0 -0 -0 -0
-0 -0 -0 -0 -0 -0 -0 -0 -0 -0 -0 -0 -0 -0 -0 -0 -0 -0 -0 -0 -0 -0 -0 -0 -0 -0 -0 -0 -0 -0 -0 -0 -0 -0 -0 -40 -31 -0 -0 -0 -0 -0 -0 -0 -0 -0 -0 -0 -0
-0 -0 -0 -0 -0 -0 -0 -0 -0 -0 -0 -0 -0 -0 -0 -0 -0 -0 -0 -0 -0 -0 -0 -0 -0 -0 -0 -0 -0 -0 -0 -0 -0 -0 -0 -0 -58 -0 -0 -0 -0 -0 -0 -0 -0 -0 -0 -0 -0
-0 -0 -0 -0 -0 -0 -0 -0 -0 -0 -0 -0 -0 -0 -0 -0 -0 -0 -0 -0 -0 -0 -0 -0 -0 -0 -0 -0 -0 -0 -0 -0 -0 -0 -0 -39 -38 -4 -10 -0 -0 -0 -0 -0 -0 -0 -0 -0 -0
-0 -0 -0 -0 -0 -0 -0 -0 -0 -0 -0 -0 -0 -0 -0 -0 -0 -0 -0 -0 -0 -0 -0 -0 -0 -0 -0 -0 -0 -0 -0 -0 -0 -29 -46 -46 -42 -12 -0 -0 -0 -0 -0 -0 -0 -0 -0 -0 -0
-0 -0 -0 -0 -0 -0 -0 -0 -0 -0 -0 -0 -0 -0 -0 -0 -0 -0 -0 -0 -0 -0 -0 -0 -0 -0 -0 -0 -0 -0 -0 -0 -24 -0 -0 -32 -18 -3 -16 -0 -0 -5 -0 -0 -0 -0 -0 -0 -0
-0 -0 -0 -0 -0 -0 -0 -0 -0 -0 -0 -0 -0 -0 -0 -0 -0 -0 -0 -0 -0 -0 -0 -0 -0 -0 -0 -0 -0 -0 -32 -0 -0 -75 -62 -0 -0 -17 -39 -0 -0 -4 -0 -0 -0 -0 -0 -0 -0
-0 -0 -0 -0 -0 -0 -0 -0 -0 -0 -0 -0 -0 -0 -0 -0 -0 -0 -0 -0 -0 -0 -0 -0 -0 -0 -0 -0 -0 -0 -0 -6 -39 -40 -33 -17 -0 -0 -0 -10 -19 -19 -5 -0 -0 -0 -0 -0 -0
-0 -0 -0 -0 -0 -0 -0 -0 -0 -0 -0 -0 -0 -0 -0 -0 -0 -0 -0 -0 -0 -0 -0 -0 -0 -0 -0 -0 -0 -0 -1 -0 -33 -31 -31 -36 -32 -6 -18 -30 -22 -17 -10 -0 -0 -0 -0 -0 -0
-0 -0 -0 -0 -0 -0 -0 -0 -0 -0 -0 -0 -0 -0 -0 -0 -0 -0 -0 -0 -0 -0 -0 -0 -0 -0 -0 -0 -0 -0 -0 -0 -26 -0 -10 -11 -17 -19 -16 -24 -17 -15 -7 -5 -0 -0 -0 -0 -0
-0 -0 -0 -0 -0 -0 -0 -0 -0 -0 -0 -0 -0 -0 -0 -0 -0 -0 -0 -0 -0 -0 -0 -0 -0 -0 -0 -0 -0 -0 -0 -25 -39 -30 -8 -24 -19 -4 -12 -12 -9 -17 -9 -2 -0 -0 -0 -0 -0
-0 -0 -0 -0 -0 -0 -0 -0 -0 -0 -0 -0 -0 -0 -0 -0 -0 -0 -0 -0 -0 -0 -0 -0 -0 -0 -0 -0 -0 -0 -0 -0 -31 -17 -10 -23 -0 -27 -19 -6 -5 -6 -3 -0 -0 -0 -0 -0 -0
-0 -0 -0 -0 -0 -0 -0 -0 -0 -0 -0 -0 -0 -0 -0 -0 -0 -0 -0 -0 -0 -0 -0 -0 -0 -0 -0 -0 -0 -0 -0 -17 -23 -52 -0 -0 -0 -24 -24 -4 -2 -3 -0 -0 -0 -0 -0 -0 -0
-0 -0 -0 -0 -0 -0 -0 -0 -0 -0 -0 -0 -0 -0 -0 -0 -0 -0 -0 -0 -0 -0 -0 -0 -0 -0 -0 -0 -0 -0 -0 -11 -0 -0 -20 -0 -0 -0 -1 -4 -2 -4 -0 -0 -0 -0 -0 -0 -0
Wind_Speed
9 7 3 3 8 7 7 5 4 5 4 2 7 8 10 11 6 7 2 4 6 6 7 7 21 21 26 31 30 30 30 30 30 29 28 24 23 9 8 8 5 4 13 13 10 8 12 12 13
5 7 2 2 6 5 5 4 6 3 6 10 11 9 5 7 5 5 2 2 2 2 4 5 18 18 21 25 29 29 29 30 29 29 27 27 23 7 8 12 10 9 13 11 8 7 11 12 11
6 6 5 6 5 5 6 5 7 9 14 6 5 8 5 4 4 3 6 7 6 4 4 6 17 19 20 24 23 26 28 28 27 28 28 26 24 19 5 7 9 11 12 6 6 8 11 10 10
4 6 8 12 10 4 6 7 6 9 6 5 11 10 6 5 3 4 6 9 6 3 3 10 21 21 16 16 20 26 27 26 25 27 27 27 25 25 12 1 4 5 6 7 6 2 7 11 11
3 5 11 11 13 11 12 9 10 9 7 9 6 7 6 5 9 9 8 6 8 6 5 8 21 22 21 18 17 23 23 23 25 26 27 25 25 24 23 3 5 6 5 2 3 4 5 8 11
6 7 9 11 10 9 9 10 15 14 12 12 13 9 4 6 7 7 9 8 8 8 6 7 17 22 24 20 20 14 18 22 24 25 26 25 23 25 25 22 15 3 5 7 3 2 3 6 9
17 13 9 10 9 10 8 14 15 13 10 8 8 6 5 3 4 7 9 8 8 8 7 7 7 15 21 17 21 20 19 22 24 23 24 25 24 24 25 23 22 21 7 11 9 8 5 7 7
10 9 13 4 8 7 8 13 13 10 5 2 6 3 3 4 5 5 10 8 8 7 8 7 7 8 11 8 23 25 22 17 16 19 24 23 23 25 24 24 22 21 18 4 14 13 13 10 12
12 12 7 8 7 7 11 7 3 8 8 5 5 5 6 7 4 4 3 4 6 7 8 7 7 7 8 10 16 19 22 18 15 15 20 14 10 13 18 20 22 21 19 18 13 14 13 14 13
10 10 6 5 8 10 8 9 9 6 10 6 6 6 5 1 4 5 5 4 5 5 6 7 7 7 7 7 9 10 12 7 5 5 5 7 9 11 15 16 22 22 20 18 10 14 12 11 4
9 10 8 10 12 12 7 5 6 7 6 5 5 5 4 6 6 6 4 5 5 5 5 7 7 6 6 4 4 4 6 5 6 6 5 6 6 7 8 8 8 9 16 8 10 8 5 7 4
21 11 8 8 7 8 7 5 6 8 4 7 8 5 4 2 4 4 3 5 4 6 6 7 7 7 5 3 3 4 4 6 6 5 5 4 4 5 7 7 9 8 8 10 8 6 3 6 5
13 7 8 9 10 8 11 5 6 6 6 6 5 5 8 5 2 2 4 6 5 0 6 7 8 7 4 5 2 4 4 4 5 7 5 3 4 5 5 8 8 8 8 8 7 7 6 3 6
7 10 9 7 5 4 7 2 3 4 6 4 6 9 9 8 9 7 7 8 8 7 10 8 9 8 7 4 3 3 4 4 5 8 3 4 3 3 4 6 7 8 8 7 7 6 5 5 5
10 10 6 5 6 2 4 2 5 9 7 6 10 9 9 10 9 10 9 9 10 8 10 9 9 8 8 6 1 2 4 3 4 6 2 3 3 4 4 4 5 7 8 9 7 6 5 5 3
5 5 5 6 6 4 7 3 7 10 9 10 9 6 7 7 7 6 7 8 9 7 10 9 8 8 8 6 2 1 3 3 4 4 1 3 3 4 4 4 4 6 6 6 6 5 5 4 2
5 3 6 3 2 4 5 2 8 10 9 8 8 8 5 3 2 1 6 6 6 4 7 6 8 8 7 5 3 3 4 3 3 4 5 4 2 3 3 2 4 6 6 6 6 5 4 4 2
5 6 5 7 4 1 5 9 10 9 9 9 8 5 5 8 6 6 7 7 7 8 2 3 6 6 5 5 5 4 4 5 4 5 4 4 2 1 2 2 4 4 6 6 7 7 4 3 4
7 7 7 3 4 2 5 4 6 11 3 2 3 6 7 4 4 6 7 7 8 9 9 7 8 6 6 6 5 2 1 3 4 4 7 7 4 2 2 2 4 4 4 7 8 6 6 2 1
8 5 5 3 5 3 6 6 4 7 4 5 7 4 3 5 6 6 7 8 8 6 8 9 7 7 5 4 3 2 2 3 4 3 7 7 3 2 3 3 4 4 4 6 7 7 5 3 3
6 4 4 3 6 5 4 6 5 2 3 1 4 2 4 5 5 5 7 6 5 5 9 8 7 7 4 1 3 2 3 2 4 5 3 4 6 6 4 5 4 4 3 5 7 6 8 4 2
2 2 4 6 6 2 5 4 4 5 2 5 4 4 5 3 4 5 6 6 8 7 7 7 7 6 2 1 1 1 1 2 1 2 3 5 5 9 5 5 5 3 2 4 5 5 6 6 3
5 2 5 4 3 4 2 3 7 2 3 5 5 5 5 2 7 6 6 7 6 6 6 7 6 4 3 4 3 2 3 2 2 2 6 3 5 5 5 6 6 5 2 3 5 6 6 4 3
9 6 7 3 1 4 2 3 6 1 2 5 4 5 3 5 5 5 6 7 6 5 6 4 4 0 1 2 4 4 3 5 4 4 4 4 4 4 6 6 6 5 5 3 4 5 7 4 4
8 8 5 3 4 7 3 2 11 3 1 2 2 3 4 4 3 5 6 6 6 6 5 5 6 5 4 5 5 2 1 2 3 3 2 4 3 3 7 8 7 4 5 4 5 5 6 5 5
4 3 6 2 2 6 5 4 7 5 2 3 5 1 4 4 3 5 6 6 5 6 6 6 6 5 3 4 4 5 6 3 2 3 3 3 3 4 6 6 5 5 5 5 6 5 5 6 4
6 5 1 1 4 3 5 4 8 3 2 5 6 3 2 4 4 5 7 6 5 5 6 6 4 4 5 6 6 5 5 4 3 4 3 2 5 5 6 6 4 4 6 6 6 4 6 6 5
2 3 2 4 1 5 7 6 6 3 2 5 7 5 3 3 5 4 5 6 5 5 5 5 5 4 4 5 4 3 5 6 5 4 5 4 1 5 7 6 4 5 6 7 7 5 6 6 4
0 1 2 4 5 4 3 9 6 5 2 4 6 4 1 1 3 4 5 6 7 6 5 5 5 6 4 4 4 4 3 5 4 4 3 4 3 5 6 6 3 4 7 8 7 6 6 6 6
0 2 5 6 2 2 4 10 4 8 5 2 6 4 4 2 4 4 3 5 4 5 5 7 5 6 4 3 5 4 4 4 6 4 5 3 4 5 5 5 4 6 7 7 8 7 6 7 9
Wind_Direction
329 323 180 28 71 67 59 42 57 82 76 71 40 70 93 45 30 116 155 43 354 319 329 299 9 9 10 9 13 11 8 11 12 12 7 8 3 356 46 39 50 83 101 74 344 120 114 114 115
330 334 74 15 93 85 66 70 69 62 147 163 125 125 70 82 78 111 138 186 133 360 296 315 10 5 19 15 11 11 11 10 10 11 10 3 6 35 55 56 61 90 111 127 200 156 129 125 119
287 152 81 81 28 96 127 128 139 159 164 164 110 57 73 49 66 103 221 212 203 255 310 302 7 25 16 19 8 15 15 10 10 9 8 6 3 6 52 67 68 80 110 128 220 177 144 134 126
352 24 47 76 79 54 108 160 142 155 165 94 117 77 89 79 85 195 189 204 158 190 350 5 14 12 20 35 10 14 16 11 11 10 7 4 2 2 348 122 106 94 70 105 32 108 157 141 137
66 45 82 80 69 66 67 77 85 83 88 75 87 71 85 130 163 193 199 141 113 83 48 19 17 12 15 8 20 15 8 19 15 12 6 3 1 360 2 345 151 130 151 65 59 26 3 163 150
55 87 91 87 68 46 33 76 81 68 78 93 95 107 106 142 166 221 141 119 115 105 80 42 25 11 6 15 14 32 11 21 15 15 8 5 0 357 360 356 21 274 184 227 176 198 300 309 171
105 104 112 112 95 57 46 38 81 75 41 13 171 102 142 102 217 203 125 118 108 101 89 60 26 13 3 7 9 9 13 17 17 17 12 6 359 357 358 356 0 357 348 192 197 209 209 251 223
114 95 112 108 107 104 70 68 72 78 32 108 19 57 137 182 219 116 123 126 112 92 89 65 40 20 3 350 9 5 2 13 22 18 19 6 4 354 353 353 354 350 345 307 214 202 193 220 246
70 76 82 132 109 125 104 95 78 119 110 52 87 96 149 194 124 75 67 96 92 73 78 71 57 37 11 8 3 358 350 6 26 24 21 15 1 350 350 346 347 348 344 345 228 203 198 218 248
81 73 60 96 124 114 129 135 153 122 112 114 118 137 116 23 102 93 67 61 80 85 73 95 66 52 29 21 9 348 343 337 4 19 8 27 7 355 352 343 347 348 350 348 249 200 207 211 232
26 92 73 74 102 106 101 63 23 115 63 70 85 60 62 27 35 50 51 90 94 133 89 89 90 75 50 21 19 354 344 329 347 7 350 22 6 3 350 342 347 340 349 347 346 234 205 193 197
88 60 70 49 67 86 90 83 64 63 99 99 87 36 344 1 25 41 51 91 82 101 130 113 118 100 71 61 25 334 342 344 340 345 344 37 10 2 350 338 342 342 342 342 344 343 239 179 195
77 97 66 68 69 79 73 72 128 109 114 105 107 210 238 224 190 242 262 131 119 154 162 144 139 127 118 82 25 343 328 338 325 336 328 36 16 357 352 347 345 335 339 337 332 333 330 262 190
133 109 124 93 78 67 124 140 116 153 131 192 194 240 234 202 208 216 227 187 183 203 173 169 152 143 117 99 36 335 317 327 330 319 303 33 19 6 353 347 332 338 330 327 319 316 306 305 202
116 104 116 154 179 138 88 144 219 155 167 226 236 239 240 213 216 221 217 202 196 212 165 175 153 146 126 120 96 335 295 329 332 316 293 32 43 13 339 326 350 325 327 321 323 316 307 290 195
140 133 119 212 186 212 106 259 171 165 176 222 243 262 254 258 238 252 256 230 224 207 165 194 144 143 129 124 128 351 337 313 318 321 338 276 61 30 333 323 327 327 317 323 332 332 320 295 212
211 250 118 135 110 152 173 229 196 181 193 223 238 253 297 299 325 202 13 35 5 238 184 161 143 136 129 107 83 40 343 328 302 327 314 236 109 24 343 320 306 332 330 329 331 331 312 306 280
343 355 87 142 234 352 238 265 186 181 192 218 241 286 310 328 303 49 39 40 27 25 295 141 107 97 85 85 53 42 343 335 328 313 297 289 209 71 3 351 319 333 326 339 334 330 308 260 274
28 36 73 133 150 135 241 342 169 194 174 188 296 325 327 333 37 58 49 34 26 27 30 68 84 65 55 26 30 346 256 291 308 319 303 328 211 180 63 347 326 316 338 332 342 324 325 277 202
55 26 354 273 149 134 273 270 135 161 185 200 241 334 356 23 21 35 44 40 41 57 53 92 97 88 79 76 325 257 274 287 286 6 319 4 324 329 55 6 334 332 357 336 336 356 320 298 329
64 59 340 290 290 237 278 331 155 240 254 174 90 168 25 31 52 37 48 47 43 47 101 101 97 99 98 236 294 300 331 6 9 347 325 6 30 332 11 4 355 343 5 339 341 345 345 325 311
157 124 312 311 21 267 120 273 217 195 82 75 32 13 352 44 43 68 52 39 36 82 99 104 96 101 150 149 82 238 231 295 22 305 321 0 20 327 12 2 341 332 353 1 322 345 325 308 310
248 170 228 284 306 353 348 102 260 148 355 344 344 334 343 13 100 80 87 75 68 90 103 111 120 142 233 263 210 134 2 314 327 360 10 7 333 341 347 350 335 330 321 339 322 354 318 287 285
268 273 205 202 192 13 241 115 271 164 256 308 303 335 25 53 108 95 99 83 75 65 101 112 115 171 202 73 87 48 39 359 351 351 12 336 331 323 325 333 323 316 326 347 330 323 289 304 289
0 11 26 345 15 224 253 18 235 169 42 274 354 26 27 67 104 103 102 90 81 74 77 106 60 19 18 85 62 67 288 350 17 355 7 339 308 309 343 335 318 326 334 335 318 307 296 325 314
297 74 135 265 311 275 233 252 258 195 194 111 51 120 62 38 84 113 126 119 95 88 94 80 59 359 69 82 16 10 36 30 357 23 29 311 316 324 306 312 320 8 347 327 319 323 307 298 282
323 50 192 120 275 28 243 272 331 193 72 40 342 23 34 66 90 114 116 126 118 104 117 119 87 6 67 70 67 25 9 3 357 6 355 333 9 338 335 334 12 2 345 324 328 302 331 323 337
52 231 50 358 327 299 293 312 224 255 348 4 329 342 35 69 67 102 120 140 145 144 144 143 108 83 90 102 76 42 25 1 343 33 14 65 21 318 7 355 13 360 347 346 344 341 352 351 349
186 243 240 146 147 182 297 272 218 201 128 322 312 339 86 73 122 131 143 153 150 162 158 136 120 96 68 91 106 65 4 349 355 70 22 22 347 3 0 353 357 18 3 355 349 357 7 1 16
8 199 150 120 235 257 167 273 252 154 117 21 308 325 359 100 169 145 149 164 164 148 128 146 127 111 94 97 121 82 40 28 34 35 348 325 355 12 340 349 27 46 11 356 357 351 15 11 26